Tracking 29528 objects as of 13-Sep-2024
HD Live streaming from Space Station
objects crossing your sky now

CZ-2C DEB

Track CZ-2C DEB now!
10-day predictions


NORAD ID: 39204
Int'l Code: 2013-035C
Perigee: 608.1 km
Apogee: 702.0 km
Inclination: 98.3 °
Period: 97.7 minutes
Semi major axis: 7026 km
RCS: Unknown
Launch date: July 15, 2013
Source: People's Republic of China (PRC)
Launch site: Jiuquan Satellite Launch Center, China (JSC)

Note: This is SATELLITE DEBRIS
Your satellite tracking list
Your tracking list is empty




NASA's NSSDC Master Catalog

Two Line Element Set (TLE):
1 39204U 13035C   24256.61498754  .00074427  00000-0  10792-1 0  9997
2 39204  98.2665 138.1830 0066772 207.5034 152.2634 14.74130554594149
Source of the keplerian elements: AFSPC